This is the latest recevied weather packets stored in our database for station/object KD9JJA. If no packets are shown the sender has not sent any weather packets the latest 10 day(s).
| Time | Temp. | Humidity | Pressure | Rain* | Wind** | Luminosity | Snow |
|---|---|---|---|---|---|---|---|
| 1777913326 | 18.89° C | 71% | 1009.6 hPa | 0 mm | - | 12 W/m² | - |
| 1777913023 | 18.89° C | 73% | 1009.6 hPa | 0 mm | - | 29 W/m² | - |
| 1777912718 | 19.44° C | 73% | 1009.6 hPa | 0 mm | - | 30 W/m² | - |
| 1777912415 | 18.89° C | 73% | 1009.9 hPa | 0 mm | - | 29 W/m² | - |
| 1777912111 | 19.44° C | 72% | 1010.3 hPa | 0 mm | - | 42 W/m² | - |
| 1777911807 | 19.44° C | 72% | 1010 hPa | 0 mm | - | 104 W/m² | - |
| 1777911504 | 19.44° C | 70% | 1009.8 hPa | 0 mm | - | 81 W/m² | - |
| 1777911201 | 19.44° C | 71% | 1009.7 hPa | 0 mm | - | 78 W/m² | - |
| 1777910898 | 18.89° C | 72% | 1009.7 hPa | 0 mm | - | 93 W/m² | - |
| 1777910595 | 18.89° C | 73% | 1009.6 hPa | 0 mm | - | 122 W/m² | - |
| 1777910292 | 18.89° C | 71% | 1009.7 hPa | 0 mm | - | 114 W/m² | - |
| 1777909989 | 18.89° C | 71% | 1009.8 hPa | 0 mm | - | 137 W/m² | - |
| 1777909686 | 18.89° C | 72% | 1009.6 hPa | 0 mm | - | 140 W/m² | - |
| 1777909383 | 18.89° C | 70% | 1009.5 hPa | 0 mm | - | 303 W/m² | - |
| 1777909081 | 18.89° C | 71% | 1009.7 hPa | 0 mm | - | 340 W/m² | - |
| 1777908779 | 18.33° C | 72% | 1009.6 hPa | 0 mm | - | 161 W/m² | - |
| 1777908475 | 18.33° C | 72% | 1009.9 hPa | 0 mm | - | 202 W/m² | - |
| 1777908172 | 18.33° C | 73% | 1010 hPa | 0 mm | - | 158 W/m² | - |
| 1777907868 | 18.33° C | 72% | 1009.8 hPa | 0 mm | - | 109 W/m² | - |
| 1777907564 | 18.33° C | 72% | 1009.9 hPa | 0 mm | - | 85 W/m² | - |
| 1777907260 | 18.33° C | 74% | 1010.1 hPa | 0 mm | - | 118 W/m² | - |
| 1777906956 | 18.33° C | 72% | 1009.7 hPa | 0 mm | - | 91 W/m² | - |
| 1777906654 | 18.33° C | 72% | 1009.5 hPa | 0 mm | - | 97 W/m² | - |
| 1777906350 | 18.33° C | 72% | 1009.9 hPa | 0 mm | - | 117 W/m² | - |
| 1777906047 | 17.78° C | 72% | 1009.4 hPa | 0 mm | - | 95 W/m² | - |
* Rain latest hour (hover to see other rain measurements)
** Current wind speed in m/s (hover to see current wind gust speed)